Location: Cieszkowy
(50.3290°N, 20.5336°E)
Time: 23:35:17
(UTC+00:00)

GRACE-FO 2 - Pass Details

Date: 15 June 2024
Orbit: 469 x 483 km, 89.0° (Epoch: 18 July)

Event Time Altitude Azimuth Distance (km) Brightness Sun altitude
Exits shadow 00:59:20 - 177° (S) 1,672 6.8 -10.0°
Reaches altitude 10° 00:59:25 10° 177° (S) 1,635 6.8 -10.0°
Maximum altitude 01:02:58 85° 91° (E) 480 4.5 -9.7°
Drops below altitude 10° 01:06:32 10° 1° (N) 1,645 8.2 -9.4°
Sets 01:08:37 0° 1° (N) 2,527 9.2 -9.2°
